Time,TemperatureF,DewpointF,PressureIn,WindDirection,WindDirectionDegrees,WindSpeedMPH,WindSpeedGustMPH,Humidity,HourlyPrecipIn,Conditions,Clouds,dailyrainin,SolarRadiationWatts/m^2,SoftwareType,DateUTC
2016-07-26 00:03:00,66.8,66.8,30.04,NNW,329,0.0,0.0,100,0.00,,,0.00,0,Wunderground v.1.15,2016-07-26 05:03:00,
2016-07-26 00:13:00,66.4,66.1,30.04,NNW,329,0.0,0.0,99,0.00,,,0.00,0,Wunderground v.1.15,2016-07-26 05:13:00,
2016-07-26 00:23:00,66.9,66.0,30.04,NNW,329,0.0,0.0,97,0.00,,,0.00,0,Wunderground v.1.15,2016-07-26 05:23:00,
2016-07-26 00:33:00,67.3,66.1,30.05,NNW,329,0.0,0.0,96,0.00,,,0.00,0,Wunderground v.1.15,2016-07-26 05:33:00,
2016-07-26 00:43:00,66.4,65.5,30.05,NNW,329,0.0,0.0,97,0.00,,,0.00,0,Wunderground v.1.15,2016-07-26 05:43:00,
2016-07-26 00:53:00,66.0,65.4,30.05,NNW,329,0.0,0.0,98,0.00,,,0.00,0,Wunderground v.1.15,2016-07-26 05:53:00,
2016-07-26 01:03:00,65.5,65.5,30.05,NNW,329,0.0,0.0,100,0.00,,,0.00,0,Wunderground v.1.15,2016-07-26 06:03:00,
2016-07-26 01:13:00,65.3,65.3,30.05,NNW,329,0.0,0.0,100,0.00,,,0.00,0,Wunderground v.1.15,2016-07-26 06:13:00,
2016-07-26 01:23:00,65.2,65.2,30.05,NNW,329,0.0,0.0,100,0.00,,,0.00,0,Wunderground v.1.15,2016-07-26 06:23:00,
2016-07-26 01:33:00,65.0,65.0,30.05,NNW,329,0.0,0.0,100,0.00,,,0.00,0,Wunderground v.1.15,2016-07-26 06:33:00,
2016-07-26 01:43:00,64.8,64.8,30.05,NNW,329,0.0,0.0,100,0.00,,,0.00,0,Wunderground v.1.15,2016-07-26 06:43:00,
2016-07-26 01:53:00,64.5,64.5,30.05,NNW,329,0.0,0.0,100,0.00,,,0.00,0,Wunderground v.1.15,2016-07-26 06:53:00,
2016-07-26 02:03:00,64.3,64.3,30.05,NNW,329,0.0,0.0,100,0.00,,,0.00,0,Wunderground v.1.15,2016-07-26 07:03:00,
2016-07-26 02:13:00,64.2,64.2,30.05,NNW,329,0.0,0.0,100,0.00,,,0.00,0,Wunderground v.1.15,2016-07-26 07:13:00,
2016-07-26 02:23:00,64.0,64.0,30.05,NNW,329,0.0,0.0,100,0.00,,,0.00,0,Wunderground v.1.15,2016-07-26 07:23:00,
2016-07-26 02:33:00,64.0,64.0,30.05,NNW,329,0.0,0.0,100,0.00,,,0.00,0,Wunderground v.1.15,2016-07-26 07:33:00,
2016-07-26 02:43:00,63.9,63.9,30.05,NNW,329,0.0,0.0,100,0.00,,,0.00,0,Wunderground v.1.15,2016-07-26 07:43:00,
2016-07-26 02:53:00,63.9,63.9,30.05,NNW,329,0.0,0.0,100,0.00,,,0.00,0,Wunderground v.1.15,2016-07-26 07:53:00,
2016-07-26 03:03:00,63.2,63.2,30.05,NNW,329,0.0,0.0,100,0.00,,,0.00,0,Wunderground v.1.15,2016-07-26 08:03:00,
2016-07-26 03:13:00,62.3,62.3,30.05,NNW,329,0.0,0.0,100,0.00,,,0.00,0,Wunderground v.1.15,2016-07-26 08:13:00,
2016-07-26 03:23:00,62.1,62.1,30.05,NNW,329,0.0,0.0,100,0.00,,,0.00,0,Wunderground v.1.15,2016-07-26 08:23:00,
2016-07-26 03:33:00,62.1,62.1,30.06,NNW,329,0.0,0.0,100,0.00,,,0.00,0,Wunderground v.1.15,2016-07-26 08:33:00,
2016-07-26 03:43:00,62.3,62.3,30.06,NNW,329,0.0,0.0,100,0.00,,,0.00,0,Wunderground v.1.15,2016-07-26 08:43:00,
2016-07-26 03:53:00,62.3,62.3,30.06,NNW,329,0.0,0.0,100,0.00,,,0.00,0,Wunderground v.1.15,2016-07-26 08:53:00,
2016-07-26 04:03:00,62.6,62.6,30.06,NNW,329,0.0,0.0,100,0.00,,,0.00,0,Wunderground v.1.15,2016-07-26 09:03:00,
2016-07-26 04:13:00,62.9,62.9,30.06,NNW,329,0.0,0.0,100,0.00,,,0.00,0,Wunderground v.1.15,2016-07-26 09:13:00,
2016-07-26 04:23:00,63.1,63.1,30.06,NNW,329,0.0,0.0,100,0.00,,,0.00,0,Wunderground v.1.15,2016-07-26 09:23:00,
2016-07-26 04:33:00,62.9,62.9,30.06,NNW,329,0.0,0.0,100,0.00,,,0.00,0,Wunderground v.1.15,2016-07-26 09:33:00,
2016-07-26 04:43:00,62.9,62.9,30.06,NNW,329,0.0,0.0,100,0.00,,,0.00,0,Wunderground v.1.15,2016-07-26 09:43:00,
2016-07-26 04:53:00,62.7,62.7,30.06,NNW,329,0.0,0.0,100,0.00,,,0.00,0,Wunderground v.1.15,2016-07-26 09:53:00,
2016-07-26 05:03:00,62.7,62.7,30.06,NNW,329,0.0,0.0,100,0.00,,,0.00,0,Wunderground v.1.15,2016-07-26 10:03:00,
2016-07-26 05:13:00,62.7,62.7,30.06,NNW,329,0.0,0.0,100,0.00,,,0.00,0,Wunderground v.1.15,2016-07-26 10:13:00,
2016-07-26 05:23:00,62.7,62.7,30.06,NNW,329,0.0,0.0,100,0.00,,,0.00,0,Wunderground v.1.15,2016-07-26 10:23:00,
2016-07-26 05:33:00,62.7,62.7,30.06,NNW,329,0.0,0.0,100,0.00,,,0.00,0,Wunderground v.1.15,2016-07-26 10:33:00,
2016-07-26 05:43:00,62.6,62.6,30.07,NNW,329,0.0,0.0,100,0.00,,,0.00,5,Wunderground v.1.15,2016-07-26 10:43:00,
2016-07-26 05:53:00,63.4,63.4,30.07,NNW,329,0.0,0.0,100,0.00,,,0.00,23,Wunderground v.1.15,2016-07-26 10:53:00,
2016-07-26 06:03:00,63.7,63.7,30.06,NNW,329,0.0,0.0,100,0.00,,,0.00,37,Wunderground v.1.15,2016-07-26 11:03:00,
2016-07-26 06:13:00,64.0,64.0,30.07,NNW,329,0.0,0.0,100,0.00,,,0.00,67,Wunderground v.1.15,2016-07-26 11:13:00,
2016-07-26 06:23:00,65.0,65.0,30.07,NNW,329,0.0,0.0,100,0.00,,,0.00,91,Wunderground v.1.15,2016-07-26 11:23:00,
2016-07-26 06:33:00,66.1,66.1,30.07,NNW,329,0.0,0.0,100,0.00,,,0.00,114,Wunderground v.1.15,2016-07-26 11:33:00,
2016-07-26 06:43:00,66.9,66.9,30.07,NNW,328,0.0,0.0,100,0.00,,,0.00,135,Wunderground v.1.15,2016-07-26 11:43:00,
2016-07-26 06:53:00,67.6,67.6,30.07,NNW,329,0.0,0.0,100,0.00,,,0.00,155,Wunderground v.1.15,2016-07-26 11:53:00,
2016-07-26 07:03:00,68.4,68.4,30.08,NNW,329,0.0,0.0,100,0.00,,,0.00,178,Wunderground v.1.15,2016-07-26 12:03:00,
2016-07-26 07:13:00,69.1,69.1,30.08,NNW,329,0.0,0.0,100,0.00,,,0.00,204,Wunderground v.1.15,2016-07-26 12:13:00,
2016-07-26 07:23:00,70.1,70.1,30.08,NNW,329,0.0,0.0,100,0.00,,,0.00,234,Wunderground v.1.15,2016-07-26 12:23:00,
2016-07-26 07:33:00,70.8,70.8,30.08,NNW,329,0.0,0.0,100,0.00,,,0.00,259,Wunderground v.1.15,2016-07-26 12:33:00,
2016-07-26 07:43:00,71.6,70.4,30.08,NW,305,0.0,2.0,96,0.00,,,0.00,283,Wunderground v.1.15,2016-07-26 12:43:00,
2016-07-26 07:53:00,72.5,69.4,30.08,WNW,299,2.0,5.0,90,0.00,,,0.00,313,Wunderground v.1.15,2016-07-26 12:53:00,
2016-07-26 08:03:00,73.5,69.4,30.08,WNW,285,3.0,3.0,87,0.00,,,0.00,341,Wunderground v.1.15,2016-07-26 13:03:00,
2016-07-26 08:13:00,74.6,70.1,30.08,WNW,287,2.0,5.0,86,0.00,,,0.00,368,Wunderground v.1.15,2016-07-26 13:13:00,
2016-07-26 08:23:00,75.3,70.1,30.08,NW,309,2.0,7.0,84,0.00,,,0.00,396,Wunderground v.1.15,2016-07-26 13:23:00,
2016-07-26 08:33:00,76.0,70.5,30.08,West,275,2.0,7.0,83,0.00,,,0.00,422,Wunderground v.1.15,2016-07-26 13:33:00,
2016-07-26 08:43:00,76.5,70.9,30.08,WNW,282,2.0,7.0,83,0.00,,,0.00,449,Wunderground v.1.15,2016-07-26 13:43:00,
2016-07-26 08:53:00,76.8,69.4,30.08,WNW,298,3.0,7.0,78,0.00,,,0.00,473,Wunderground v.1.15,2016-07-26 13:53:00,
2016-07-26 09:03:00,77.4,70.0,30.08,West,272,3.0,7.0,78,0.00,,,0.00,500,Wunderground v.1.15,2016-07-26 14:03:00,
2016-07-26 09:13:00,77.7,70.3,30.07,NNW,328,3.0,3.0,78,0.00,,,0.00,524,Wunderground v.1.15,2016-07-26 14:13:00,
2016-07-26 09:23:00,78.1,70.3,30.07,NW,308,3.0,3.0,77,0.00,,,0.00,547,Wunderground v.1.15,2016-07-26 14:23:00,
2016-07-26 09:33:00,78.5,70.7,30.07,NW,320,3.0,3.0,77,0.00,,,0.00,572,Wunderground v.1.15,2016-07-26 14:33:00,
2016-07-26 09:43:00,78.8,69.4,30.07,West,281,4.0,4.0,73,0.00,,,0.00,595,Wunderground v.1.15,2016-07-26 14:43:00,
2016-07-26 09:53:00,79.2,69.8,30.07,NNW,336,4.0,4.0,73,0.00,,,0.00,618,Wunderground v.1.15,2016-07-26 14:53:00,
2016-07-26 10:03:00,79.6,69.8,30.06,WNW,292,4.0,10.0,72,0.00,,,0.00,637,Wunderground v.1.15,2016-07-26 15:03:00,
2016-07-26 10:13:00,79.9,70.5,30.06,NW,312,4.0,4.0,73,0.00,,,0.00,656,Wunderground v.1.15,2016-07-26 15:13:00,
2016-07-26 10:23:00,80.3,70.0,30.06,WNW,294,3.0,3.0,71,0.00,,,0.00,676,Wunderground v.1.15,2016-07-26 15:23:00,
2016-07-26 10:33:00,80.7,71.2,30.06,NW,320,3.0,9.0,73,0.00,,,0.00,691,Wunderground v.1.15,2016-07-26 15:33:00,
2016-07-26 10:43:00,80.7,69.6,30.07,North,356,4.0,4.0,69,0.00,,,0.00,709,Wunderground v.1.15,2016-07-26 15:43:00,
2016-07-26 10:53:00,81.2,70.5,30.07,NNW,342,2.0,2.0,70,0.00,,,0.00,725,Wunderground v.1.15,2016-07-26 15:53:00,
2016-07-26 11:03:00,81.6,70.9,30.06,NW,323,3.0,3.0,70,0.00,,,0.00,739,Wunderground v.1.15,2016-07-26 16:03:00,
2016-07-26 11:13:00,81.4,70.2,30.06,WSW,248,3.0,8.0,69,0.00,,,0.00,750,Wunderground v.1.15,2016-07-26 16:13:00,
2016-07-26 11:23:00,81.8,70.2,30.06,West,278,4.0,4.0,68,0.00,,,0.00,764,Wunderground v.1.15,2016-07-26 16:23:00,
2016-07-26 11:33:00,82.2,70.6,30.06,WNW,292,4.0,4.0,68,0.00,,,0.00,776,Wunderground v.1.15,2016-07-26 16:33:00,
2016-07-26 11:43:00,82.6,68.7,30.06,West,271,3.0,7.0,63,0.00,,,0.00,785,Wunderground v.1.15,2016-07-26 16:43:00,
2016-07-26 11:53:00,82.6,69.6,30.06,West,272,5.0,10.0,65,0.00,,,0.00,795,Wunderground v.1.15,2016-07-26 16:53:00,
2016-07-26 12:03:00,83.2,69.3,30.06,NW,325,3.0,3.0,63,0.00,,,0.00,801,Wunderground v.1.15,2016-07-26 17:03:00,
2016-07-26 12:13:00,83.4,70.4,30.06,NW,313,3.0,3.0,65,0.00,,,0.00,809,Wunderground v.1.15,2016-07-26 17:13:00,
2016-07-26 12:23:00,83.6,70.1,30.06,WSW,247,4.0,4.0,64,0.00,,,0.00,838,Wunderground v.1.15,2016-07-26 17:23:00,
2016-07-26 12:33:00,84.1,69.2,30.05,SW,223,3.0,3.0,61,0.00,,,0.00,827,Wunderground v.1.15,2016-07-26 17:33:00,
2016-07-26 12:43:00,83.8,67.9,30.04,SW,232,5.0,5.0,59,0.00,,,0.00,838,Wunderground v.1.15,2016-07-26 17:43:00,
2016-07-26 12:53:00,84.1,67.2,30.04,West,270,5.0,11.0,57,0.00,,,0.00,855,Wunderground v.1.15,2016-07-26 17:53:00,
2016-07-26 13:03:00,84.5,67.6,30.04,West,277,5.0,5.0,57,0.00,,,0.00,855,Wunderground v.1.15,2016-07-26 18:03:00,
2016-07-26 13:13:00,84.7,68.3,30.04,West,261,5.0,11.0,58,0.00,,,0.00,855,Wunderground v.1.15,2016-07-26 18:13:00,
2016-07-26 13:23:00,84.9,67.5,30.04,West,268,4.0,12.0,56,0.00,,,0.00,836,Wunderground v.1.15,2016-07-26 18:23:00,
2016-07-26 13:33:00,84.5,69.6,30.04,WNW,295,5.0,12.0,61,0.00,,,0.00,829,Wunderground v.1.15,2016-07-26 18:33:00,
2016-07-26 13:43:00,84.7,68.8,30.03,SW,220,5.0,12.0,59,0.00,,,0.00,809,Wunderground v.1.15,2016-07-26 18:43:00,
2016-07-26 13:53:00,85.1,68.7,30.03,West,272,5.0,12.0,58,0.00,,,0.00,809,Wunderground v.1.15,2016-07-26 18:53:00,
2016-07-26 14:03:00,84.9,68.5,30.03,WNW,288,6.0,6.0,58,0.00,,,0.00,779,Wunderground v.1.15,2016-07-26 19:03:00,
2016-07-26 14:13:00,85.1,69.2,30.03,WSW,246,5.0,5.0,59,0.00,,,0.00,801,Wunderground v.1.15,2016-07-26 19:13:00,
2016-07-26 14:23:00,85.1,69.2,30.03,SW,223,5.0,12.0,59,0.00,,,0.00,794,Wunderground v.1.15,2016-07-26 19:23:00,
2016-07-26 14:33:00,85.1,68.2,30.03,West,261,6.0,6.0,57,0.00,,,0.00,774,Wunderground v.1.15,2016-07-26 19:33:00,
2016-07-26 14:43:00,85.5,68.5,30.02,WSW,244,5.0,5.0,57,0.00,,,0.00,774,Wunderground v.1.15,2016-07-26 19:43:00,
2016-07-26 14:53:00,85.7,67.7,30.02,SW,226,5.0,5.0,55,0.00,,,0.00,751,Wunderground v.1.15,2016-07-26 19:53:00,
2016-07-26 15:03:00,85.7,69.7,30.02,SW,229,6.0,6.0,59,0.00,,,0.00,721,Wunderground v.1.15,2016-07-26 20:03:00,
2016-07-26 15:13:00,85.7,68.2,30.02,WSW,247,5.0,16.0,56,0.00,,,0.00,707,Wunderground v.1.15,2016-07-26 20:13:00,
2016-07-26 15:23:00,85.5,69.0,30.02,SW,234,6.0,13.0,58,0.00,,,0.00,686,Wunderground v.1.15,2016-07-26 20:23:00,
2016-07-26 15:33:00,85.5,68.5,30.02,WSW,258,7.0,7.0,57,0.00,,,0.00,665,Wunderground v.1.15,2016-07-26 20:33:00,
2016-07-26 15:43:00,85.9,69.4,30.01,WNW,289,5.0,5.0,58,0.00,,,0.00,644,Wunderground v.1.15,2016-07-26 20:43:00,
2016-07-26 16:03:00,85.5,68.5,30.01,West,263,7.0,7.0,57,0.00,,,0.00,602,Wunderground v.1.15,2016-07-26 21:03:00,
2016-07-26 16:13:00,85.5,69.0,30.01,SSW,202,6.0,13.0,58,0.00,,,0.00,579,Wunderground v.1.15,2016-07-26 21:13:00,
2016-07-26 16:23:00,85.3,69.8,30.01,SW,230,7.0,7.0,60,0.00,,,0.00,556,Wunderground v.1.15,2016-07-26 21:23:00,
2016-07-26 16:33:00,85.5,69.0,30.00,SW,227,6.0,6.0,58,0.00,,,0.00,533,Wunderground v.1.15,2016-07-26 21:33:00,
2016-07-26 16:43:00,85.5,69.5,30.00,WSW,251,5.0,5.0,59,0.00,,,0.00,509,Wunderground v.1.15,2016-07-26 21:43:00,
2016-07-26 16:53:00,85.9,69.9,30.00,WSW,248,5.0,5.0,59,0.00,,,0.00,486,Wunderground v.1.15,2016-07-26 21:53:00,
2016-07-26 17:03:00,85.9,69.9,30.00,SSW,210,5.0,13.0,59,0.00,,,0.00,461,Wunderground v.1.15,2016-07-26 22:03:00,
2016-07-26 17:13:00,85.5,69.5,29.99,SW,227,5.0,5.0,59,0.00,,,0.00,435,Wunderground v.1.15,2016-07-26 22:13:00,
2016-07-26 17:23:00,85.5,69.5,29.99,South,186,5.0,13.0,59,0.00,,,0.00,410,Wunderground v.1.15,2016-07-26 22:23:00,
2016-07-26 17:33:00,85.5,70.5,29.98,SSW,213,5.0,13.0,61,0.00,,,0.00,382,Wunderground v.1.15,2016-07-26 22:33:00,